Location: Douglas (historical)
(40.9162°N, 81.8718°W)
Time: 15:21:11
(UTC+00:00)

Daily predictions for brighter satellites

Satellite Brightness Start Highest point End
(mag) Time Altitude Azimuth Time Altitude Azimuth Time Altitude Azimuth
CZ-4B R/B 3.4 12:02:26 10° N 12:05:36 30° WNW 12:08:47 10° SW
Cosmos 1428 Rocket 4.5 12:00:50 10° SSW 12:06:56 68° W 12:13:02 10° N
AQUARIUS 4.1 12:02:32 10° N 12:07:03 77° WNW 12:11:31 10° SSW
Cosmos 1092 Rocket 4.1 12:01:22 10° SSW 12:07:30 58° W 12:13:45 10° N
Meteor 1-19 Rocket 4.2 12:02:44 10° N 12:08:20 86° W 12:13:45 10° S
Cosmos 1805 Rocket 3.8 12:05:37 10° SSW 12:09:51 47° W 12:14:05 10° N
H-2A R/B 2.3 12:05:49 10° S 12:09:56 49° W 12:14:11 10° NNW
Cosmos 1538 Rocket 4.1 12:04:53 10° NNW 12:10:01 59° WSW 12:15:05 10° S
SMAP 3.1 12:05:29 10° N 12:10:05 62° WNW 12:14:40 10° SSW
CZ-4B DEB 4.4 12:04:57 10° NNE 12:10:26 80° ESE 12:15:53 10° SSW
SL-24 R/B - RUBIN 2 4.0 22:27:14 10° NNW 22:31:28 40° NE 22:35:32 10° ESE
Cosmos 540 Rocket 3.5 22:27:32 10° SSW 22:32:39 89° WNW 22:37:47 10° NNE
Cosmos 2360 4.2 22:28:31 10° NNW 22:34:17 79° ENE 22:40:00 10° SSE
USA 234 3.7 22:29:14 10° E 22:35:19 43° NNE 22:41:24 10° NW
PSLV R/B 4.5 22:35:51 10° SE 22:39:04 29° ENE 22:42:19 10° N
Meteor 1-20 Rocket 4.5 22:35:29 10° N 22:41:21 83° W 22:47:11 10° S
Meteor PRIRODA 4.0 22:38:24 10° S 22:42:00 67° W 22:45:37 10° NNW
Cosmos 921 Rocket 4.3 22:42:27 10° SE 22:45:31 20° E 22:48:25 11° NE
Cosmos 1933 3.9 22:45:06 10° SSW 22:49:05 61° W 22:53:06 10° N
Cosmos 1812 3.0 22:45:55 10° SSE 22:49:35 45° E 22:53:16 10° NNE
CZ-4B R/B 3.7 22:48:57 10° S 22:52:55 54° W 22:56:42 10° NNW
CZ-2C R/B 3.1 22:49:47 10° SW 22:53:15 24° SSE 22:56:37 10° ESE
Cosmos 1814 Rocket 4.0 22:50:06 10° S 22:55:16 66° ESE 23:00:25 10° NNE
Meteor 1-26 Rocket 4.4 22:49:53 10° S 22:55:51 89° E 23:01:56 10° N
COSMO-SKYMED 1 3.5 22:52:15 10° NE 22:56:02 28° E 22:59:47 10° SSE
Cosmos 1570 Rocket 4.1 22:51:52 10° S 22:57:00 59° ESE 23:02:08 10° NNE
COSMOS 2455 3.2 22:52:56 10° SW 22:58:54 66° WNW 23:04:56 10° NNE
Cosmos 1633 Rocket 3.5 22:55:40 10° N 22:59:47 38° ENE 23:03:53 10° SSE
Cosmos 1151 Rocket 3.0 22:57:46 10° S 23:02:00 59° E 23:06:18 10° NNE
X-37B 1.9 22:59:41 10° SSW 23:02:03 23° SE 23:03:24 17° ESE
Cosmos 1092 Rocket 4.4 22:57:21 10° NNW 23:03:41 72° W 23:09:57 10° S
Cosmos 1697 Rocket 3.6 22:58:26 10° NNW 23:03:53 54° WSW 23:09:19 10° S
Cosmos 2322 Rocket 3.5 23:00:33 10° N 23:04:25 18° NE 23:05:57 17° ENE
AQUARIUS 4.2 23:00:50 10° SSE 23:05:19 89° W 23:09:50 10° NNW
Cosmos 1980 Rocket 2.1 23:03:43 10° NNW 23:09:24 85° ENE 23:15:01 10° SSE
SMAP 3.6 23:08:09 10° S 23:12:45 63° W 23:17:23 10° NNW
CORIOLIS 4.4 23:10:01 10° S 23:15:24 74° WSW 23:20:51 10° NNW
Landsat 5 4.1 23:14:49 21° NE 23:16:36 30° E 23:20:05 10° SSE
Cosmos 2369 4.2 23:11:09 10° NNW 23:16:50 66° WSW 23:22:28 10° S
Cosmos 1818 3.9 23:12:28 10° NNW 23:17:40 42° NE 23:22:49 10° ESE
ISS -3.9 23:14:54 10° NW 23:18:18 78° NE 23:20:29 20° ESE
CZ-4C R/B 3.0 23:12:58 10° NNW 23:20:22 72° NE 23:28:55 10° SE
Cosmos 2142 Rocket 4.5 23:16:57 10° S 23:23:06 88° W 23:29:22 10° N
Cosmos 2082 Rocket 3.0 23:18:22 10° SW 23:23:53 51° WNW 23:29:25 10° NNE
SL-16 R/B 2.9 23:19:03 10° N 23:24:06 32° ENE 23:27:08 20° ESE
Meteor 1-5 Rocket 4.2 23:18:51 10° N 23:24:51 78° E 23:30:41 10° SSE
Okean O Rocket 1.9 23:21:09 10° SE 23:25:22 44° ENE 23:29:37 10° N
Cosmos 2279 Rocket 4.0 23:19:40 10° S 23:25:53 88° W 23:32:07 10° N
Cosmos 1328 Rocket 3.5 23:22:06 10° S 23:26:31 78° E 23:30:59 10° N
USA 306 4.5 23:24:10 10° NNW 23:27:14 19° NNE 23:27:37 19° NNE
Cosmos 1666 Rocket 3.6 23:23:17 10° N 23:27:43 82° W 23:32:06 10° S
Cosmos 1470 Rocket 3.7 23:26:50 10° N 23:31:11 50° E 23:35:32 10° SSE
ARGOS 3.2 23:25:58 10° SSE 23:31:14 56° ENE 23:36:31 10° N
Cosmos 44 Rocket 3.4 23:26:59 10° NNW 23:31:46 50° NE 23:34:46 21° ESE
Cosmos 2266 Rocket 4.2 23:27:10 10° N 23:33:23 50° ENE 23:39:34 10° SSE
Cosmos 2208 Rocket 4.1 23:28:35 10° SSW 23:33:58 81° WNW 23:39:21 11° NNE
Aureole 3 Rocket 3.9 23:32:51 10° SSE 23:36:38 34° E 23:37:00 33° ENE
CZ-2D R/B 3.9 23:33:17 10° S 23:37:03 56° W 23:40:49 10° NNW
MOS 1-B 4.5 23:32:23 10° SSE 23:38:09 79° WSW 23:43:57 10° NNW
Cosmos 1867 4.1 23:34:24 10° S 23:39:26 40° ESE 23:40:49 34° E
Cosmos 2278 3.8 23:34:19 10° NNW 23:40:01 77° WSW 23:45:41 10° SSE
Cosmos 2150 Rocket 4.1 23:35:48 10° N 23:40:51 50° ENE 23:45:55 10° SE
Meteor 2-15 4.3 23:35:14 10° S 23:41:20 77° E 23:47:25 10° N
H-2A R/B 2.3 23:36:16 10° S 23:41:25 70° WSW 23:46:27 10° NNW
ATLAS CENTAUR R/B 4.1 23:35:40 10° W 23:42:45 26° NW 23:45:46 14° N
SKYMED 2 3.6 23:40:10 12° N 23:44:13 83° WNW 23:48:33 10° SSW
USA 267 4.2 23:41:27 17° NNE 23:46:02 39° NNW 23:51:59 10° W
USA 32 4.1 23:43:52 10° SSE 23:48:54 51° E 23:51:15 29° NNE
Cosmos 1125 Rocket 3.5 23:47:06 10° NNW 23:52:18 58° ENE 23:56:49 14° SE
